Simultaneous Nadir Overpasses (SNOs) Predictions

Prediction of SNOs between NOAA-15 and METOP-C Satellite Orbit:

Table of predicted SNOs for the next 14.0 days since TLE Epoch: 10/12/2024
Index Date (NOAA-15) Time (NOAA-15) Lat,Lon (NOAA-15) SZA (NOAA-15 ) Date (METOP-C) Time (METOP-C) Lat,Lon (METOP-C) SZA (METOP-C ) Distance(km) Time Diff (sec)
1 10/17/2024 11:03:28 -81.03,-127.85 87.26 10/17/2024 11:02:14 -81.03,-127.90 87.30 0.96 74
2 10/17/2024 11:53:54 81.02, 39.63 92.77 10/17/2024 11:52:54 81.04, 39.66 92.75 1.70 60
3 10/17/2024 12:44:27 -81.03,-153.03 87.23 10/17/2024 12:43:35 -81.04,-153.02 87.24 1.48 52
4 10/17/2024 13:34:54 81.04, 14.09 92.77 10/17/2024 13:34:16 81.03, 14.18 92.76 1.72 38
5 10/17/2024 14:25:27 -81.04,-178.58 87.22 10/17/2024 14:24:57 -81.03,-178.50 87.23 1.75 30
6 10/17/2024 15:15:53 81.04, -11.10 92.80 10/17/2024 15:15:37 81.04, -10.94 92.82 2.88 16
7 10/17/2024 16:06:26 -81.04, 156.23 87.19 10/17/2024 16:06:18 -81.04, 156.39 87.18 2.83 8
8 10/17/2024 16:56:52 81.03, -36.28 92.83 10/17/2024 16:56:59 81.04, -36.42 92.82 2.41 7
9 10/17/2024 17:47:24 -81.03, 131.05 87.16 10/17/2024 17:47:39 -81.04, 130.91 87.17 2.33 15
10 10/17/2024 18:37:50 81.03, -61.47 92.86 10/17/2024 18:38:19 81.05, -61.53 92.88 2.10 29
11 10/17/2024 19:28:23 -81.03, 105.86 87.13 10/17/2024 19:29:00 -81.05, 105.80 87.11 1.87 37
12 10/17/2024 20:18:50 81.04, -87.01 92.87 10/17/2024 20:19:41 81.04, -87.01 92.89 0.56 51
13 10/17/2024 21:09:23 -81.05, 80.31 87.13 10/17/2024 21:10:22 -81.04, 80.32 87.11 0.80 59



Historial Predications of SNOs between NOAA-15 and METOP-C
